Regional Weather Roundup
Issued by NWS Jackson, KY

Home | Current Version | Previous Version | Graphics & Text | Print | Product List | Glossary On
Versions: 1 2 3 4 5 6 7 8 9 10 11 12 13 14 15 16 17 18 19 20 21 22 23 24 25 26 27 28 29 30 31 32 33 34 35 36 37 38 39 40 41 42 43 44 45 46 47 48 49 50
333
ASUS43 KJKL 221710
RWRJKL

EAST KENTUCKY HOURLY WEATHER ROUNDUP
NATIONAL WEATHER SERVICE JACKSON KY
100 PM EDT MON MAY 22 2017

NOTE: "FAIR" INDICATES FEW OR NO CLOUDS BELOW 12,000 FEET WITH
NO SIGNIFICANT WEATHER AND/OR OBSTRUCTIONS TO VISIBILITY.

* THESE REPORTS ARE NOT UNDER NWS QUALITY CONTROL AND MAY NOT
  REPORT WEATHER SUCH AS PRECIPITATION AND FOG.

KYZ079-080-083-085-087-088-110-112-115-119-120-221800
...EASTERN KENTUCKY...

CITY           SKY/WX    TMP DP  RH WIND       PRES   REMARKS
JACKSON        CLOUDY    63  47  55 VRB3      30.14F
LONDON         CLOUDY    64  48  56 CALM      30.14F
SOMERSET*      MOSUNNY   63  45  51 NE3       30.15F
MONTICELLO*    MOSUNNY   64  49  57 N9        30.15F
WILLIAMSBURG*  CLOUDY    64  48  55 N8        30.13F
MIDDLESBORO*   CLOUDY    67  57  68 N5        30.13F
HARLAN APT*    CLOUDY    66  54  63 CALM      30.14F
PIKE CO APT*   PTSUNNY   64  55  73 W5        30.13F
BIG SANDY APT* CLOUDY    66  52  61 W6        30.13F
MOREHEAD APT*  MOSUNNY   64  45  48 VRB6      30.15F
$$

KYZ035-036-041-042-044-050-067-078-099-221800
...CENTRAL KENTUCKY...

CITY           SKY/WX    TMP DP  RH WIND       PRES   REMARKS
MT STERLING*   CLOUDY    63  46  55 NW3       30.16S
FLEMING/MASON* MOSUNNY   63  46  53 NW10      30.15F
DANVILLE*      CLOUDY    64  46  52 NE5       30.15F
LEXINGTON      MOSUNNY   65  45  48 VRB3      30.15S
FRANKFORT      PTSUNNY   66  44  45 N7        30.14F
LOUISVILLE     CLOUDY    68  45  43 E9        30.13F
LEBANON*         N/A     64  48  55 N6        30.15F
GLASGOW*       CLOUDY    67  48  49 NE7       30.13F
BOWLING GREEN  CLOUDY    68  51  54 NE10      30.13F
$$

KYZ091>093-OHZ055-061-077-WVZ005-015-034-035-042-221800
...SOUTHERN OHIO/WEST VIRGINIA...

CITY           SKY/WX    TMP DP  RH WIND       PRES   REMARKS
COVINGTON      CLOUDY    63  42  46 NW7       30.13F
COLUMBUS       CLOUDY    62  45  53 W12G21    30.11S
DAYTON         PTSUNNY   61  43  51 VRB6      30.11F
WILMINGTON     MOSUNNY   62  45  53 W10       30.12F
HUNTINGTON     CLOUDY    65  46  50 W8        30.11F
CHARLESTON     PTSUNNY   68  54  60 VRB5      30.09F
PINEVILLE*     CLOUDY    67  58  74 MISG      30.16S
BECKLEY        CLOUDY    66  55  67 W10       30.11F
BLUEFIELD      CLOUDY    63  56  78 W9        30.14S
LOGAN CO APT*  CLOUDY    66  57  72 VRB6      30.11F
$$

VAZ002-007-008-TNZ017-027-036-066-071-221800
...SOUTHWEST VIRGINIA/EAST TENNESSEE...

CITY           SKY/WX    TMP DP  RH WIND       PRES   REMARKS
WISE*          CLOUDY    63  61  94 CALM      30.17F
JONESVILLE*      N/A     68  57  68 CALM      30.14F
ABINGDON*      CLOUDY    71  62  72 NW6       30.12S
BRISTOL        CLOUDY    73  62  68 VRB6      30.09F
MORRISTOWN*    PTSUNNY   68  63  83 N6        30.10F
SEVIERVILLE*   CLOUDY    66  61  82 VRB7      30.10S
KNOXVILLE      CLOUDY    68  58  70 N9        30.08F
LAFOLLETTE*    MOSUNNY   66  57  72 NE9       30.13F
OAK RIDGE      CLOUDY    69  57  65 VRB5      30.10F
CROSSVILLE     CLOUDY    66  56  70 VRB3      30.12F
NASHVILLE      PTSUNNY   71  48  43 NE8       30.12F
$$

...KEY TO REMARKS...
VSB - VISIBILITY IN MILES
WCI - WIND CHILL INDEX
HX  - HEAT INDEX

$$




USA.gov is the U.S. government's official web portal to all federal, state and local government web resources and services.